Aberdeen / Amory, MS

11:03 PM CDT on May 23, 2017 (GMT -0500)
Aberdeen / Amory

Weather History for KM40 - September, 2013

Change the Weather History Date:

Wednesday, September 18, 2013

  Actual Average (KCBM) Record (KCBM)
Temperature  
Mean Temperature 80 °F -  
Max Temperature 91 °F 83 °F 97 °F (2010)
Min Temperature 69 °F 62 °F 51 °F (2000)
Cooling Degree Days 15    
Growing Degree Days 30 (Base 50)    
Moisture  
Dew Point 61 °F    
Average Humidity 56    
Maximum Humidity 58    
Minimum Humidity 53    
Precipitation  
Precipitation 0.00 in - - ()
Sea Level Pressure  
Sea Level Pressure 30.11 in    
Wind  
Wind Speed 4 mph (SSE)    
Max Wind Speed 8 mph    
Max Gust Speed -    
Visibility 7 miles    
Events      
Averages and records for this station are not official NWS values.
T = Trace of Precipitation, MM = Missing Value Source: NWS Daily Summary

Daily Weather History Graph

Daily Weather History Graph

Search for Another Location

Airport or City:

Trip Planner

Search our weather history database for the weather conditions in past years. The results will help you decide how hot, cold, wet, or windy it might be!

Date:

Astronomy

Sep. 18, 2013 Rise Set
Actual Time 6:39 AM CDT 6:55 PM CDT
Civil Twilight 6:14 AM CDT 7:20 PM CDT
Nautical Twilight 5:45 AM CDT 7:50 PM CDT
Astronomical Twilight 5:15 AM CDT 8:19 PM CDT
Moon 6:19 PM CDT (9/18) 5:42 AM CDT (9/18)
Length of Visible Light 13h 06m
Length of Day
12h 16m
Waxing Gibbous, 99% of the Moon is Illuminated
Sep 18
Waxing Gibbous
Sep 19
Full
Sep 26
Last Quarter
Oct 4
New
Oct 11
First Quarter

Hourly Weather History & Observations

Time (CDT) Temp. Heat Index Dew Point Humidity Pressure Visibility Wind Dir Wind Speed Gust Speed Precip Events Conditions
12:15 AM 75.2 °F - 59.0 °F 57% 30.09 in 7.0 mi SE 5.8 mph - N/A   Clear
12:35 AM 75.2 °F - 57.2 °F 53% 30.10 in 7.0 mi SSE 4.6 mph - N/A   Clear
12:55 AM 75.2 °F - 57.2 °F 53% 30.10 in 7.0 mi SE 4.6 mph - N/A   Clear
1:15 AM 73.4 °F - 57.2 °F 57% 30.10 in 6.0 mi SE 4.6 mph - N/A   Haze
1:35 AM 73.4 °F - 57.2 °F 57% 30.11 in 6.0 mi SE 5.8 mph - N/A   Haze
1:55 AM 73.4 °F - 57.2 °F 57% 30.11 in 5.0 mi SSE 5.8 mph - N/A   Haze
2:15 AM 73.4 °F - 57.2 °F 57% 30.10 in 6.0 mi SE 4.6 mph - N/A   Haze
2:35 AM 73.4 °F - 55.4 °F 53% 30.10 in 6.0 mi SSE 4.6 mph - N/A   Haze
2:55 AM 73.4 °F - 55.4 °F 53% 30.10 in 5.0 mi SSE 3.5 mph - N/A   Haze
3:15 AM 71.6 °F - 55.4 °F 57% 30.11 in 5.0 mi Calm Calm - N/A   Haze
3:35 AM 71.6 °F - 55.4 °F 57% 30.11 in 5.0 mi Calm Calm - N/A   Haze
3:55 AM 71.6 °F - 55.4 °F 57% 30.11 in 5.0 mi Calm Calm - N/A   Haze
4:15 AM 71.6 °F - 53.6 °F 53% 30.11 in 5.0 mi Calm Calm - N/A   Haze
4:35 AM 71.6 °F - 53.6 °F 53% 30.11 in 5.0 mi SE 3.5 mph - N/A   Haze
4:55 AM 71.6 °F - 53.6 °F 53% 30.12 in 5.0 mi SE 3.5 mph - N/A   Haze
5:15 AM 71.6 °F - 55.4 °F 57% 30.12 in 5.0 mi ESE 3.5 mph - N/A   Haze
5:35 AM 71.6 °F - 55.4 °F 57% 30.12 in 6.0 mi SE 3.5 mph - N/A   Haze
5:55 AM 71.6 °F - 55.4 °F 57% 30.12 in 6.0 mi SE 3.5 mph - N/A   Haze
6:15 AM 71.6 °F - 55.4 °F 57% 30.13 in 7.0 mi SSE 5.8 mph - N/A   Overcast
6:35 AM 71.6 °F - 55.4 °F 57% 30.13 in 7.0 mi SE 6.9 mph - N/A   Overcast
6:55 AM 71.6 °F - 55.4 °F 57% 30.13 in 7.0 mi SE 5.8 mph - N/A   Overcast
7:15 AM 73.4 °F - 55.4 °F 53% 30.13 in 6.0 mi SE 4.6 mph - N/A   Haze
7:35 AM 73.4 °F - 55.4 °F 53% 30.14 in 5.0 mi SE 4.6 mph - N/A   Haze
7:55 AM 73.4 °F - 55.4 °F 53% 30.15 in 6.0 mi SSE 5.8 mph - N/A   Haze
8:15 AM 73.4 °F - 57.2 °F 57% 30.15 in 7.0 mi SSE 5.8 mph - N/A   Overcast
8:35 AM 73.4 °F - 57.2 °F 57% 30.16 in 7.0 mi SSE 4.6 mph - N/A   Overcast
8:55 AM 75.2 °F - 57.2 °F 53% 30.16 in 6.0 mi SSE 6.9 mph - N/A   Haze
9:15 AM 75.2 °F - 59.0 °F 57% 30.16 in 7.0 mi SSE 6.9 mph - N/A   Mostly Cloudy
9:35 AM 75.2 °F - 59.0 °F 57% 30.17 in 8.0 mi SE 5.8 mph - N/A   Mostly Cloudy
9:55 AM 77.0 °F - 60.8 °F 57% 30.17 in 7.0 mi SE 6.9 mph - N/A   Mostly Cloudy
10:15 AM 77.0 °F - 60.8 °F 57% 30.17 in 7.0 mi SSE 5.8 mph - N/A   Mostly Cloudy
10:35 AM 78.8 °F - 60.8 °F 54% 30.17 in 7.0 mi SE 6.9 mph - N/A   Mostly Cloudy
10:55 AM 78.8 °F - 62.6 °F 57% 30.17 in 7.0 mi South 4.6 mph - N/A   Mostly Cloudy
11:15 AM 80.6 °F 81.8 °F 62.6 °F 54% 30.17 in 7.0 mi South 6.9 mph - N/A   Mostly Cloudy
11:35 AM 80.6 °F 82.3 °F 64.4 °F 58% 30.16 in 7.0 mi SSE 6.9 mph - N/A   Mostly Cloudy
11:55 AM 80.6 °F 82.3 °F 64.4 °F 58% 30.16 in 6.0 mi SSE 8.1 mph - N/A   Haze
12:15 PM 80.6 °F 82.3 °F 64.4 °F 58% 30.15 in 8.0 mi South 5.8 mph - N/A   Mostly Cloudy
12:35 PM 80.6 °F 82.3 °F 64.4 °F 58% 30.15 in 7.0 mi South 6.9 mph - N/A   Mostly Cloudy
12:55 PM 82.4 °F 84.6 °F 66.2 °F 58% 30.14 in 7.0 mi SSW 4.6 mph - N/A   Mostly Cloudy
1:15 PM 86.0 °F 90.4 °F 69.8 °F 58% 30.13 in 7.0 mi SSW 4.6 mph - N/A   Scattered Clouds
1:35 PM 87.8 °F 92.6 °F 69.8 °F 55% 30.13 in 7.0 mi SW 8.1 mph - N/A   Mostly Cloudy
1:55 PM 84.2 °F 87.3 °F 68.0 °F 58% 30.12 in 8.0 mi SW 5.8 mph - N/A   Mostly Cloudy
2:15 PM 87.8 °F 92.6 °F 69.8 °F 55% 30.11 in 7.0 mi SSW 4.6 mph - N/A   Mostly Cloudy
2:35 PM 89.6 °F 96.2 °F 71.6 °F 55% 30.10 in 7.0 mi SSW 3.5 mph - N/A   Scattered Clouds
2:55 PM 89.6 °F 96.2 °F 71.6 °F 55% 30.09 in 7.0 mi SW 3.5 mph - N/A   Scattered Clouds
3:15 PM 89.6 °F 96.2 °F 71.6 °F 55% 30.08 in 7.0 mi South 4.6 mph - N/A   Scattered Clouds
3:35 PM 87.8 °F 92.6 °F 69.8 °F 55% 30.08 in 8.0 mi South 3.5 mph - N/A   Mostly Cloudy
3:55 PM 87.8 °F 92.6 °F 69.8 °F 55% 30.07 in 8.0 mi SW 3.5 mph - N/A   Mostly Cloudy
4:15 PM 89.6 °F 96.2 °F 71.6 °F 55% 30.07 in 8.0 mi South 3.5 mph - N/A   Partly Cloudy
4:35 PM 91.4 °F 100.1 °F 73.4 °F 55% 30.07 in 7.0 mi South 3.5 mph - N/A   Clear
4:55 PM 89.6 °F 96.2 °F 71.6 °F 55% 30.06 in 8.0 mi SSW 4.6 mph - N/A   Clear
5:15 PM 89.6 °F 96.2 °F 71.6 °F 55% 30.06 in 8.0 mi Calm Calm - N/A   Clear
5:35 PM 87.8 °F 93.8 °F 71.6 °F 58% 30.06 in 8.0 mi South 5.8 mph - N/A   Clear
5:55 PM 87.8 °F 92.6 °F 69.8 °F 55% 30.06 in 8.0 mi Calm Calm - N/A   Clear
6:15 PM 87.8 °F 92.6 °F 69.8 °F 55% 30.06 in 8.0 mi Calm Calm - N/A   Clear
6:35 PM 84.2 °F 87.3 °F 68.0 °F 58% 30.06 in 9.0 mi Calm Calm - N/A   Clear
6:55 PM 82.4 °F 83.9 °F 64.4 °F 54% 30.06 in 8.0 mi Calm Calm - N/A   Clear
7:15 PM 78.8 °F - 62.6 °F 57% 30.06 in 8.0 mi Calm Calm - N/A   Clear
7:35 PM 77.0 °F - 60.8 °F 57% 30.06 in 8.0 mi Calm Calm - N/A   Clear
7:55 PM 75.2 °F - 57.2 °F 53% 30.07 in 7.0 mi Calm Calm - N/A   Clear
8:15 PM 73.4 °F - 57.2 °F 57% 30.08 in 7.0 mi Calm Calm - N/A   Clear
8:35 PM 73.4 °F - 57.2 °F 57% 30.08 in 7.0 mi Calm Calm - N/A   Clear
8:55 PM 73.4 °F - 55.4 °F 53% 30.08 in 7.0 mi Calm Calm - N/A   Clear
9:15 PM 71.6 °F - 55.4 °F 57% 30.08 in 5.0 mi North - - N/A   Haze
9:35 PM 71.6 °F - 55.4 °F 57% 30.08 in 5.0 mi Calm Calm - N/A   Haze
9:55 PM 71.6 °F - 53.6 °F 53% 30.08 in 7.0 mi Calm Calm - N/A   Clear
10:15 PM 71.6 °F - 53.6 °F 53% 30.09 in 3.0 mi Calm Calm - N/A   Haze
10:35 PM 69.8 °F - 53.6 °F 56% 30.09 in 7.0 mi East 3.5 mph - N/A   Clear
10:55 PM 71.6 °F - 55.4 °F 57% 30.09 in 7.0 mi SE 3.5 mph - N/A   Clear
11:15 PM 71.6 °F - 55.4 °F 57% 30.09 in 7.0 mi Calm Calm - N/A   Clear
11:35 PM 71.6 °F - 55.4 °F 57% 30.08 in 8.0 mi Calm Calm - N/A   Clear
11:55 PM 71.6 °F - 55.4 °F 57% 30.08 in 8.0 mi SSE 3.5 mph - N/A   Clear